Location: Campalano
(45.1667°N, 11.0833°E)
Time: 14:20:31
(UTC+00:00)

Daily predictions for brighter satellites

Satellite Brightness Start Highest point End
(mag) Time Altitude Azimuth Time Altitude Azimuth Time Altitude Azimuth
Cosmos 2322 Rocket 4.4 16:27:47 10° NW 16:32:46 32° WSW 16:37:44 10° SSW
Cosmos 372 Rocket 4.1 16:28:28 10° S 16:33:27 56° ESE 16:38:30 10° NNE
Feng Yun 1-1 Rocket 4.3 16:27:52 10° SSE 16:33:31 72° ENE 16:39:20 10° N
Cosmos 2333 Rocket 2.3 16:28:28 10° NNW 16:34:06 54° ENE 16:39:39 10° SE
Cosmos 2237 Rocket 3.2 16:31:17 10° N 16:35:48 24° NE 16:40:17 10° ESE
PSLV R/B 3.9 16:33:37 10° NNE 16:37:43 85° ESE 16:41:48 10° SSW
Cosmos 1174 4.3 16:34:46 10° NW 16:37:50 52° WSW 16:41:20 10° SSE
Cosmos 1674 2.8 16:34:52 10° S 16:38:35 81° W 16:42:20 10° N
Starlink AQ 2.8 16:35:47 10° SW 16:38:38 64° SE 16:41:31 10° ENE
Meteor 1-24 Rocket 3.7 16:35:03 10° S 16:40:13 58° E 16:45:29 10° NNE
Nadezhda 3 Rocket 4.4 16:35:03 10° N 16:41:00 43° ENE 16:46:58 10° SE
Starlink BA 2.7 16:38:14 10° SW 16:41:04 68° SE 16:43:56 10° ENE
Starlink AR 2.3 16:38:41 10° SW 16:41:10 71° SE 16:43:42 10° ENE
Starlink AS 2.7 16:38:19 10° SW 16:41:11 68° SE 16:44:04 10° ENE
Starlink AU 2.7 16:38:44 10° SW 16:41:36 69° SE 16:44:29 10° ENE
Starlink BB 2.7 16:38:52 10° SW 16:41:43 69° SE 16:44:36 10° ENE
Starlink AT 2.7 16:38:58 10° SW 16:41:50 69° SE 16:44:42 10° ENE
Starlink BC 2.7 16:39:06 10° SW 16:41:58 69° SE 16:44:49 10° ENE
Starlink AY 2.7 16:39:33 10° SW 16:42:24 70° SE 16:45:16 10° ENE
Starlink BK 2.7 16:39:37 10° SW 16:42:29 70° SE 16:45:21 10° ENE
Starlink AW 2.7 16:39:45 10° SW 16:42:37 70° SE 16:45:28 10° ENE
Starlink AV 2.7 16:40:09 10° SW 16:43:00 71° SE 16:45:50 10° ENE
Starlink BJ 2.7 16:40:14 10° SW 16:43:06 71° SSE 16:45:57 10° ENE
Starlink BD 2.7 16:40:22 10° SW 16:43:14 71° SE 16:46:04 10° ENE
Starlink BE 2.7 16:40:52 10° SW 16:43:46 73° SSE 16:46:38 10° ENE
Starlink AX 2.7 16:41:01 10° SW 16:43:53 73° SE 16:46:42 10° ENE
Cosmos 1461 3.1 16:39:37 10° NNW 16:43:54 59° NE 16:48:19 10° SE
Starlink BM 2.7 16:41:06 10° SW 16:43:59 73° SE 16:46:48 10° ENE
COSMO-SKYMED 1 3.5 16:40:33 10° NE 16:44:19 28° E 16:48:02 10° SSE
Starlink AZ 2.7 16:41:29 10° SW 16:44:20 73° SE 16:47:08 11° ENE
Starlink BH 2.7 16:41:34 10° SW 16:44:26 74° SSE 16:47:15 11° ENE
Starlink BG 2.7 16:42:01 10° SW 16:44:53 74° SE 16:47:40 11° ENE
Starlink BF 2.7 16:42:13 10° SW 16:45:06 75° SE 16:47:53 11° ENE
Starlink BL 2.7 16:42:24 10° SW 16:45:18 75° SE 16:48:05 11° ENE
Cosmos 1908 3.6 16:41:28 10° NNW 16:45:20 69° W 16:49:09 10° S
Starlink AH 2.7 16:42:37 10° SW 16:45:30 75° SE 16:48:16 11° ENE
Starlink AC 2.7 16:42:50 10° SW 16:45:43 76° SE 16:48:29 11° ENE
Cosmos 1340 Rocket 3.7 16:42:23 10° NNE 16:45:48 27° ENE 16:49:13 10° SE
Starlink X 2.7 16:43:03 10° SW 16:45:56 76° SE 16:48:41 11° ENE
Starlink Z 2.6 16:43:12 10° SW 16:46:04 76° SE 16:48:48 11° ENE
Starlink AE 2.7 16:43:16 10° SW 16:46:10 77° SE 16:48:56 11° ENE
Starlink AK 2.6 16:43:43 10° SW 16:46:37 77° SE 16:49:20 11° ENE
Meteor 2-5 Rocket 3.7 16:41:10 10° S 16:46:42 90° E 16:52:18 10° N
Cosmos 1300 3.2 16:43:11 10° N 16:46:46 37° ENE 16:50:18 10° SE
Starlink AL 2.6 16:43:57 10° SW 16:46:50 78° SSE 16:49:33 11° ENE
Okean-O 2.8 16:42:42 10° SE 16:46:58 50° ENE 16:51:16 10° N
Starlink AD 2.6 16:44:09 10° SW 16:47:02 78° SSE 16:49:45 11° ENE
Starlink Y 2.6 16:44:19 10° SW 16:47:11 78° SSE 16:49:53 11° ENE
Starlink AG 2.6 16:44:48 10° SW 16:47:42 79° SE 16:50:23 12° ENE
Starlink W 2.7 16:45:00 10° SW 16:47:54 80° SSE 16:50:37 12° ENE
Starlink AJ 2.6 16:45:14 10° SW 16:48:07 80° SE 16:50:48 12° ENE
Starlink AM 2.6 16:45:39 10° SW 16:48:32 81° SE 16:51:12 12° ENE
Starlink AA 2.6 16:45:47 10° SW 16:48:41 81° SE 16:51:19 12° ENE
Timation 2 Rocket 4.1 16:42:50 10° S 16:48:44 57° ESE 16:54:52 10° NE
Starlink AP 2.6 16:45:52 10° SW 16:48:46 81° SSE 16:51:25 12° ENE
CZ-4B R/B 4.1 16:47:22 10° NW 16:48:58 13° WNW 16:50:33 10° W
Starlink AB 2.6 16:46:16 10° SW 16:49:09 82° SE 16:51:46 12° ENE
Starlink AF 2.6 16:46:19 10° SW 16:49:13 82° SSE 16:51:53 12° ENE
Starlink AN 2.6 16:46:45 10° SW 16:49:39 83° SE 16:52:16 12° ENE
Cosmos 1726 4.2 16:47:14 10° NNW 16:50:28 31° W 16:53:43 10° SSW
Okean O Rocket 3.9 16:47:37 10° SSW 16:51:29 29° W 16:55:24 10° NW
Cosmos 2298 Rocket 4.0 16:47:07 10° SSW 16:52:25 84° ESE 16:57:45 10° NNE
SL-14 R/B 3.5 16:50:36 10° S 16:54:29 52° E 16:58:23 10° NNE
KORONAS-FOTON 4.5 16:51:22 10° SSW 16:55:05 57° W 16:58:50 10° N
SL-16 R/B 3.8 16:51:58 10° N 16:55:18 16° NE 16:57:54 12° ENE
CSL-04 Rocket 4.4 16:50:41 10° SE 16:55:26 31° ENE 17:00:15 10° N
USA 267 4.0 16:51:52 10° NE 16:58:02 46° NNW 17:04:11 10° W
Cosmos 1271 Rocket 2.5 16:54:24 10° S 16:58:07 79° E 17:01:53 10° NNE
FengYun 1-2 T 4.4 16:52:41 10° SE 16:58:08 55° ENE 17:03:39 10° N
Cosmos 1626 Rocket 3.5 16:54:13 10° S 16:58:29 60° E 17:02:45 10° NNE
Starlink T 2.6 16:55:37 10° WSW 16:58:31 82° NNW 17:00:48 15° NE
NOSS 0 Rocket 4.1 16:53:00 10° NNW 16:59:03 50° NE 17:05:03 10° SE
Starlink N 2.7 16:56:44 10° WSW 16:59:38 80° NNW 17:01:53 16° NE
Cosmos 2219 4.1 16:55:31 10° SSE 17:00:16 29° ESE 17:04:54 11° NE
Starlink Q 2.7 16:58:11 10° WSW 17:01:05 78° NNW 17:03:16 16° NE
Ariane Rocket 4.4 16:58:56 10° E 17:02:00 16° ENE 17:05:04 10° NNE
ATLAS 5 CENTAUR R/B 2.8 16:58:16 10° WSW 17:02:14 36° NW 17:06:40 10° NNE
Starlink P 2.7 16:59:25 10° WSW 17:02:18 76° NNW 17:04:27 17° NE
ERBS 4.4 17:01:10 10° SSE 17:02:48 13° SE 17:03:49 12° ESE
Cosmos 1455 4.3 17:01:13 10° NE 17:01:33 11° NE 17:01:33 11° NE
Starlink U 2.7 17:00:38 10° WSW 17:03:32 74° NNW 17:05:38 17° NE
Cosmos 1939 Rocket 4.0 17:00:35 10° ESE 17:03:33 21° ENE 17:06:33 10° NNE
Cosmos 494 Rocket 4.3 16:59:00 10° N 17:03:54 43° ENE 17:08:46 10° SE
Starlink B 2.7 17:01:34 10° WSW 17:04:28 72° NNW 17:06:31 17° NE
Starlink D 2.9 17:06:04 10° WSW 17:08:59 66° NNW 17:10:54 19° NE
Cosmos 1626 2.0 17:06:08 10° S 17:09:49 72° E 17:13:31 10° NNE
Starlink S 2.9 17:07:23 10° WSW 17:10:18 64° NNW 17:12:10 20° NE
Starlink C 2.9 17:08:39 10° WSW 17:11:34 63° NNW 17:13:24 20° NE
Starlink E 3.0 17:10:00 10° WSW 17:12:54 61° NNW 17:14:41 21° NE
Starlink J 3.0 17:11:19 10° WSW 17:14:13 60° NNW 17:15:57 21° NE
Cosmos 1242 Rocket 2.5 17:11:11 10° SSW 17:14:39 82° W 17:18:12 10° N
YAOGAN 6 2.5 17:11:07 10° SSE 17:14:48 79° ENE 17:18:30 10° N
Starlink V 3.0 17:12:37 10° WSW 17:15:32 58° NNW 17:17:12 22° NE
Meteor 2-1 Rocket 4.2 17:10:56 10° N 17:16:22 56° ENE 17:21:47 10° SSE
NOAA 12 4.4 17:11:15 10° S 17:16:27 70° WSW 17:21:43 10° NNW
Starlink H 3.1 17:13:58 10° WSW 17:16:53 57° NNW 17:18:30 23° NE
Cosmos 1607 4.0 17:11:09 10° SW 17:17:17 85° NW 17:23:30 10° NE
Cosmos 2297 Rocket 3.1 17:12:37 10° SSE 17:17:20 28° ESE 17:20:27 17° ENE
Cosmos 1980 3.9 17:12:29 10° NNW 17:18:00 48° ENE 17:23:28 10° SE
Starlink F 3.1 17:15:19 10° WSW 17:18:13 55° NNW 17:19:48 23° NE
Cosmos 1825 Rocket 4.3 17:14:32 10° SSE 17:18:19 29° E 17:21:28 13° NE
Starlink G 3.2 17:16:39 10° WSW 17:19:33 54° NNW 17:21:05 24° NE
Starlink L 3.2 17:18:00 10° WSW 17:20:53 53° NNW 17:22:22 24° NE
USA 32 4.2 17:16:11 10° SSE 17:21:11 48° E 17:26:12 10° NNE
SJ 16-02 4.0 17:19:23 10° W 17:21:55 15° NW 17:24:27 10° NNW
Starlink A 3.2 17:19:21 10° WSW 17:22:15 51° NNW 17:23:40 25° NE
Starlink R 3.3 17:20:43 10° WSW 17:23:37 50° NNW 17:24:59 26° NE
Starlink K 3.3 17:22:02 10° WSW 17:24:55 49° NNW 17:26:15 26° NE
CZ-4 R/B 4.3 17:21:08 10° SSE 17:25:15 73° ENE 17:29:23 10° N
Starlink M 3.4 17:23:20 10° WSW 17:26:13 48° NNW 17:27:30 27° NE
CZ-4 R/B 1.3 17:24:36 10° SSE 17:28:35 70° ENE 17:32:41 10° N
Cosmos 2227 Rocket 2.9 17:24:18 10° SSE 17:29:13 32° ESE 17:31:48 22° ENE
COSMOS 2428 3.2 17:23:46 10° NNW 17:29:28 65° WSW 17:35:07 10° SSE
Meteor 2-17 Rocket 4.4 17:24:11 10° S 17:30:16 69° E 17:36:23 10° NNE
Cosmos 2219 Rocket 2.8 17:25:40 10° NNW 17:31:16 60° WSW 17:36:49 10° S
NOAA 11 4.2 17:26:05 10° SSE 17:31:26 56° ENE 17:36:49 10° N
SKYMED 2 3.5 17:28:07 10° NNE 17:32:29 88° E 17:36:50 10° SSW
Cosmos 2218 Rocket 4.5 17:28:38 10° SSE 17:34:22 38° E 17:40:10 10° NNE
Cosmos 2154 Rocket 4.3 17:36:27 10° SSW 17:42:42 70° W 17:48:58 10° N
Cosmos 1241 Rocket 4.3 17:37:09 10° NNW 17:43:23 80° NE 17:49:38 10° SE
Cosmos 1125 Rocket 3.8 17:40:12 10° SSW 17:45:22 67° WNW 17:50:35 10° NNE
Cosmos 1812 Rocket 4.1 17:41:39 10° NNW 17:46:04 61° W 17:50:27 10° S
ATLAS 5 CENTAUR R/B 4.3 17:43:58 10° NNW 17:47:49 26° NE 17:49:39 24° ENE
USA 116 3.0 17:50:27 52° NNE 17:51:09 76° ESE 17:54:14 10° S
YAOGAN 1 2.6 17:48:48 10° SSE 17:53:07 82° WSW 17:57:29 10° NNW
Cosmos 724 4.2 17:50:37 10° SSW 17:56:33 72° ESE 17:59:41 29° NE
Cosmos 1269 Rocket 4.1 17:56:24 10° NNW 18:01:42 79° WSW 18:06:58 10° SSE
Cosmos 1959 Rocket 4.4 17:57:39 10° S 18:03:44 61° E 18:09:46 10° NNE
IRS-1A Rocket 4.4 17:59:34 10° SE 18:05:11 52° ENE 18:10:42 10° N
CSL-04 Debris 4.4 18:00:15 10° S 18:05:37 72° WSW 18:11:02 10° NNW
Cosmos-2242 2.9 18:02:45 10° N 18:07:07 89° E 18:11:25 10° S
CZ-4C R/B 3.5 18:01:49 10° NW 18:09:02 62° WSW 18:17:10 10° SSE
NOSS 2-1 (E) 4.4 18:03:59 10° NNW 18:09:22 64° NE 18:12:46 32° ESE
CZ-2D R/B 3.4 18:05:37 10° S 18:09:23 70° WSW 18:13:14 10° NNW
Cosmos 2366 rocket 3.9 18:06:32 10° S 18:12:39 69° E 18:18:52 10° NNE
ISS -1.4 18:11:28 10° SSW 18:12:27 16° S 18:12:27 16° S
Meteor 2-10 Rocket 3.4 18:09:37 10° N 18:15:03 80° ENE 18:20:14 10° SSE
Cosmos 2333 Rocket 4.5 18:13:27 10° NW 18:17:58 25° WSW 18:22:27 10° SSW
Cosmos 2237 Rocket 2.5 18:14:46 10° NNW 18:20:21 64° WSW 18:25:53 10° SSE
COSMO-SKYMED 1 4.4 18:16:39 10° N 18:20:26 30° WNW 18:24:13 10° SW
MOS 1 4.3 18:21:40 55° ENE 18:21:52 55° ENE 18:27:26 10° N
Cosmos 1953 Rocket 3.6 18:19:43 10° S 18:24:12 81° W 18:25:10 54° N
Cosmos 1932 4.4 18:19:16 10° SSW 18:25:36 79° ESE 18:27:34 48° NE
ADEOS Rocket 3.1 18:20:10 10° NNE 18:26:38 75° ESE 18:33:47 10° S
Cosmos 1727 Rocket 3.8 18:30:56 10° N 18:37:10 81° E 18:43:19 10° S
Cosmos 1455 4.4 18:35:21 10° NNW 18:36:36 19° NNW 18:36:36 19° NNW
USA 267 4.3 18:38:39 29° NNE 18:40:08 32° N 18:45:44 10° WNW
Ariane Rocket 3.0 18:37:49 30° S 18:40:20 76° WSW 18:45:27 10° NNW
SL-16 R/B 2.2 18:34:46 10° NNW 18:39:50 66° NNE 18:39:50 66° NNE
Cosmos 44 4.5 18:37:10 10° SSW 18:39:35 30° SSW 18:39:35 30° SSW
H-2A R/B 3.9 18:46:39 18° N 18:46:39 18° N 18:47:57 10° N
Cosmos 2219 4.1 18:38:48 10° SW 18:44:10 46° WNW 18:46:52 27° N
Cosmos 2082 3.8 18:42:45 10° SSW 18:47:22 62° S 18:47:22 62° S
ATLAS 5 CENTAUR R/B 4.3 18:46:29 10° NW 18:48:27 12° NNW 18:49:06 12° N
ATLAS CENTAUR R/B 4.2 18:51:44 10° NNW 18:51:45 10° NNW 18:51:45 10° NNW
Cosmos 2297 Rocket 3.0 18:55:40 10° SW 19:01:07 48° WNW 19:02:19 41° NNW
Cosmos 2227 Rocket 3.2 19:07:45 10° SW 19:13:07 43° WNW 19:13:41 41° NW
